Regional Weather Roundup
Issued by NWS Bismarck, ND

Home | Current Version | Previous Version | Text Only | Print | Product List | Glossary On
Versions: 1 2 3 4 5 6 7 8 9 10 11 12 13 14 15 16 17 18 19 20 21 22 23 24 25 26 27 28 29 30 31 32 33 34 35 36 37 38 39 40 41 42 43 44 45 46 47 48 49 50
000
ASUS43 KBIS 261010
RWRBIS

NWR BROADCAST TEXT
NATIONAL WEATHER SERVICE BISMARCK ND
500 AM CDT TUE JUL 26 2016

NOTE: "FAIR" INDICATES FEW OR NO CLOUDS BELOW 12,000 FEET WITH NO
SIGNIFICANT WEATHER AND/OR OBSTRUCTIONS TO VISIBILITY.


CITY           SKY/WX    TMP DP  RH WIND       PRES   REMARKS
WILLISTON      CLEAR     64  59  83 N9        30.02S
MINOT          CLEAR     64  60  87 CALM      29.99F
MINOT AFB      CLEAR     64  61  91 N5        30.00R
BISMARCK       CLEAR     70  68  93 NE7       29.95S
DICKINSON      CLEAR     64  63  96 NE6       30.00S
GARRISON         N/A     63  62  97 N5        30.00R
HETTINGER ARPT CLEAR     68  64  87 NE15      30.00F
JAMESTOWN      CLOUDY    69  67  93 W6        29.94S
BEACH          FAIR      64  64 100 E6        30.03F
CARRINGTON     FAIR      66  64  94 CALM      29.99R
HAZEN          FAIR      63  63 100 NE3       30.01R
LINTON         FAIR      70  64  83 SE5       29.97R
MANDAN         FAIR      68  66  94 NE7       29.97S
OAKES            N/A    N/A N/A N/A MISG        N/A
STANLEY        FAIR      59  59 100 N8        30.06R FOG
WATFORD CITY     N/A    N/A N/A N/A MISG        N/A
$$

CITY           SKY/WX    TMP DP  RH WIND       PRES   REMARKS
GRAND FORKS    CLEAR     65  63  93 N6        29.92S
GRAND FORKS AF CLEAR     65  65  99 N5        29.94R
DEVILS LAKE    CLOUDY    65  63  93 CALM      29.99R
FARGO          CLOUDY    72  61  68 SW10      29.91S
CAVALIER       FAIR      64  64 100 W3        29.95S
GRAFTON        FAIR      64  64 100 N5        29.96S
GWINNER        PTSUNNY   70  63  78 W10       30.01R
LANGDON        FAIR      59  59 100 CALM      29.99S
ROLLA          FAIR      59  59 100 NW6       30.01F
$$

CITY           SKY/WX    TMP DP  RH WIND       PRES   REMARKS
ABERDEEN       PTCLDY    65  58  78 N5        29.99R
MOBRIDGE       CLOUDY    76  61  59 SE10      29.92F
BUFFALO          N/A     65  55  70 NE15      29.91F
RAPID CITY     PTCLDY    67  60  78 W3        30.00S
GLASGOW        CLOUDY    66  61  84 E7        30.04S
SIDNEY         MOCLDY    65  60  84 N7        30.00S
WOLF POINT     CLOUDY    66  62  87 NE3       30.03S
GLENDIVE       CLOUDY    70  62  76 W20G30    30.06R
MILES CITY     LGT RAIN  70  60  70 SE5       30.07F
BAKER          PTCLDY    67  62  84 E7        30.02S
$$

CITY           SKY/WX    TMP DP  RH WIND       PRES   REMARKS
BILLINGS       PTCLDY    67  51  56 SW8       30.08F
GREAT FALLS    CLEAR     59  49  69 S5        30.08S
ESTEVAN        PTCLDY    61  59  94 N6        30.04R
$$




USA.gov is the U.S. government's official web portal to all federal, state and local government web resources and services.